Regional Weather Roundup
Issued by NWS

Home | Current Version | Previous Version | Graphics & Text | Print | Product List | Glossary On
Versions: 1 2 3 4 5 6 7 8 9 10 11 12 13 14 15 16 17 18 19 20 21 22 23 24 25 26 27 28 29 30 31 32 33 34 35 36 37 38 39 40 41 42 43 44 45 46 47 48 49
697
ASUS45 KSLC 120110
RWRUT

UTAH REGIONAL WEATHER ROUNDUP
NATIONAL WEATHER SERVICE SALT LAKE CITY UT
600 PM MST THU FEB 11 2016

UTZ001>011-023>025-120200-

NORTHERN UTAH

CITY           SKY/WX    TMP DP  RH WIND       PRES   REMARKS
BRIGHAM CITY   CLOUDY    28  25  89 CALM      30.46S
HILL AFB       PTCLDY    28  25  86 NW8       30.43R FOG     WCI  20
LOGAN          CLOUDY    24  23  96 CALM      30.44R FOG
OGDEN          CLOUDY    27  26  96 NW5       30.44R FOG     WCI  22
PROVO AIRPORT  NOT AVBL
SALT LAKE CITY MOCLDY    30  26  85 NW10      30.45R FOG     WCI  21
VERNAL         CLOUDY    25  18  74 E3        30.39S HAZE
WENDOVER       CLOUDY    30  27  86 S3        30.44F
HEBER CITY     PTCLDY    30  19  64 CALM      30.38R
WEST JORDAN    CLEAR     30  28  93 NW10      30.43R WCI  21

$$

UTZ012>022-026-027-120200-

SOUTHERN/CENTRAL UTAH

CITY           SKY/WX    TMP DP  RH WIND       PRES   REMARKS
BLANDING       PTCLDY    40  29  64 NW3       30.43S
BRYCE CANYON   MOCLDY    38  23  55 SE10      30.41R WCI  31
CEDAR CITY     MOCLDY    35  27  72 NE5       30.35R WCI  31
DELTA          CLOUDY    19  18  95 W5        30.43R WCI  12
HANKSVILLE     PTCLDY    43  32  65 N7        30.40R
MILFORD        CLOUDY    18  13  80 N8        30.39R WCI   8
MOAB/CYNLANDS  CLEAR     36  29  75 W6        30.37R WCI  31
PRICE          PTCLDY    40  25  55 CALM      30.37S
ST GEORGE      PTCLDY    63  25  23 SW3       30.25S
KANAB          CLEAR     55  32  41 E12       30.34R

$$

REGIONAL REPORTS     COLORADO/ARIZONA

CITY           SKY/WX    TMP DP  RH WIND       PRES   REMARKS
CRAIG, CO      CLOUDY    20  14  77 CALM      30.38S
GRAND JUNCTION CLEAR     36  29  75 CALM      30.37S
RIFLE          CLOUDY    34  22  61 S6        30.37R WCI  29
MONTROSE       CLOUDY    41  25  53 N3        30.39R
CORTEZ         CLOUDY    42  25  50 CALM      30.36R
PAGE, AZ       CLEAR     52  30  43 CALM      30.33R
GRAND CANYON   CLEAR     53  18  25 NE6       30.39R
KINGMAN        CLEAR     68  26  20 N5        30.23R
FLAGSTAFF      PTCLDY    51  19  28 E5        30.39R

$$

REGIONAL REPORTS    NEVADA/IDAHO/WYOMING

CITY           SKY/WX    TMP DP  RH WIND       PRES   REMARKS
LAS VEGAS, NV  PTCLDY    72  21  14 CALM      30.15S
ELY            CLOUDY    34  27  75 S7        30.36R WCI  28
ELKO           MOCLDY    34  24  67 E6        30.35S WCI  29
POCATELLO, ID  CLOUDY    32  25  75 E5        30.39R WCI  27
BURLEY         CLOUDY    37  30  75 NE9       30.32S WCI  30
EVANSTON, WY   CLOUDY    39  19  44 SW9       30.39S WCI  33
ROCK SPRINGS   CLOUDY    39  22  50 W16       30.34S WCI  30
KEMMERER       CLOUDY    34  19  55 NW7       30.38S WCI  28

$$




USA.gov is the U.S. government's official web portal to all federal, state and local government web resources and services.